Regional Weather Roundup
Issued by NWS

Home | Current Version | Previous Version | Text Only | Print | Product List | Glossary On
Versions: 1 2 3 4 5 6 7 8 9 10 11 12 13 14 15 16 17 18 19 20 21 22 23 24 25 26 27 28 29 30 31 32 33 34 35 36 37 38 39 40 41 42 43 44 45 46 47 48 49 50
000
ASUS43 KLSX 291710
RWRMO

WEATHER SUMMARY FOR MISSOURI
NATIONAL WEATHER SERVICE SPRINGFIELD MO
1200 PM CDT SAT AUG 29 2015

NOTE: "FAIR" INDICATES FEW OR NO CLOUDS BELOW 12,000 FEET WITH NO
       SIGNIFICANT WEATHER AND/OR OBSTRUCTIONS TO VISIBILITY.
       CURRENT SKY AND/OR WEATHER CONDITIONS ARE NOT AVAILABLE FOR
       CHILLICOTHE AND FARMINGTON.

MOZ001>031-035>038-043-044-053-054-291800-
...NORTHERN AND WESTERN MISSOURI...

CITY           SKY/WX    TMP DP  RH WIND       PRES   REMARKS
KANSAS CTY INT CLOUDY    70  66  87 NW5       30.04R
KANSAS C DTWN  CLOUDY    74  67  78 NW5       30.02S
LEE`S SUMMIT   CLOUDY    73  68  84 N6        30.04R
ST JOSEPH      CLOUDY    70  66  87 N9        30.04R
CHILLICOTHE      N/A     77  71  82 N3        30.02R
KIRKSVILLE     CLOUDY    73  66  78 CALM      30.03R

$$
MOZ066>068-077>081-088>096-101>105-291800-
...SOUTHWEST MISSOURI...

CITY           SKY/WX    TMP DP  RH WIND       PRES   REMARKS
SPRINGFIELD    SUNNY     78  65  63 S14       30.04F
JOPLIN         CLOUDY    77  66  68 SW7       30.03R

$$
MOZ032>034-039>042-045>050-055>058-069>072-291800-
...CENTRAL MISSOURI...

CITY           SKY/WX    TMP DP  RH WIND       PRES   REMARKS
COLUMBIA       SUNNY     80  67  64 SW12      30.02S
JEFFERSON CITY CLOUDY    80  63  55 SW10      30.01S
ROLLA          LGT RAIN  73  67  81 S9        30.05R
SEDALIA        CLOUDY    77  65  66 SW9       30.03S
WHITEMAN AFB   CLOUDY    74  67  79 S8        30.01S
WARRENSBURG    CLOUDY    73  68  83 SE5       30.01S
OSAGE BEACH    MOSUNNY   81  63  54 SW13      30.03S

$$
MOZ051-052-059>065-291800-
...EAST CENTRAL MISSOURI...

CITY           SKY/WX    TMP DP  RH WIND       PRES   REMARKS
ST LOUIS INTL  CLOUDY    81  65  58 SW9       30.04R
SPIRIT OF STL  CLOUDY    79  67  66 S7        30.02S
ST CHARLES     CLOUDY    78  67  68 SW9       30.02R

$$
MOZ072>076-082>087-097>100-106>115-291800-
...SOUTH CENTRAL AND SOUTHEAST MISSOURI...

CITY           SKY/WX    TMP DP  RH WIND       PRES   REMARKS
CAPE GIRARDEAU CLOUDY    78  69  73 S7        30.07S
FARMINGTON     CLOUDY    72  64  78 S9        30.10S
POPLAR BLUFF   PTSUNNY   80  66  62 SW8       30.07S
WEST PLAINS    CLOUDY    67  64  90 S8        30.10S

$$



USA.gov is the U.S. government's official web portal to all federal, state and local government web resources and services.